SCP
0 0 0 0 0 0 0 0 0 0 0 0 0 0 0 0 0 -0 -0 -0 -0 -0 -0 -0 -0 0 0 0 0 -0 0 0 0 0 0 -0 0 -0 -0 -0 0 0 0 0
0 0 0 0 0 0 0 0 0 0 0 0 0 0 0 0 0 -0 -0 -0 -0 -0 -0 -0 -0 -0 0 0 0 -0 -0 0 0 0 -0 0 0 -0 0 0 0 0 -0 0
0 0 0 0 0 0 0 0 0 0 0 0 0 0 0 0 0 -0 -0 -0 -0 -0 -0 -0 -0 -0 -0 0 0 0 -0 0 0 0 -0 0 0 0 0 0 0 0 0 0
0 0 0 0 0 0 0 0 0 0 0 -0 -0 0 0 0 0 -0 -0 -0 -0 -0 -0 -0 -0 -0 -0 -0 0 0 -0 -0 0 0 0 0 0 0 0 0 0 0 0 0
0 0 0 0 0 0 0 0 0 0 0 0 -0 0 0 0 0 0 -0 -0 -0 -0 -0 -0 -0 -0 -0 -0 -0 -0 0 -0 -0 0 0 0 0 0 0 0 0 0 0 0
0 0 0 0 0 0 0 0 0 0 0 0 0 0 0 0 0 0 0 -0 -0 -0 -0 -0 -0 -0 -0 -0 -0 0 0 -0 -0 0 0 0 0 0 0 0 0 0 0 0
0 0 0 0 0 0 0 0 0 0 0 0 0 0 0 0 0 0 0 -0 -0 -0 -0 -0 -0 -0 -0 -0 -0 0 0 0 -0 0 -0 0 0 0 0 0 0 0 0 0
0 0 1 0 0 0 0 0 0 0 0 0 0 0 0 0 0 0 0 -0 -0 -0 0 0 -0 -0 -0 -0 -0 0 0 -0 -0 0 -0 -0 -0 -0 -0 0 0 0 0 0
0 1 0 0 0 0 0 0 0 0 0 0 0 0 0 0 0 0 0 -0 0 0 0 0 -0 -0 -0 -0 -0 0 0 0 -0 0 0 -0 -0 -0 0 0 0 0 0 0
0 0 0 0 0 0 0 0 0 0 0 0 0 0 0 0 0 0 0 0 -0 0 -0 -0 -0 -0 -0 -0 -0 -0 0 0 0 0 0 -0 -0 0 0 0 0 0 0 0
0 0 0 0 0 0 0 0 0 0 0 0 0 0 0 0 0 0 0 0 0 0 0 -0 -0 -0 -0 -0 0 -0 0 0 0 0 0 0 0 -0 0 0 -0 -0 -0 -0
0 0 0 0 0 0 0 0 0 0 0 0 0 0 0 0 0 0 0 0 0 0 0 0 0 0 0 0 0 0 0 0 0 0 0 0 0 0 0 0 -0 -0 -0 -0
0 0 0 0 0 0 0 0 0 0 0 0 0 0 0 0 0 0 0 0 0 0 0 0 0 0 0 0 0 0 0 0 0 0 0 0 0 0 0 0 0 0 -0 0
-0 0 0 0 0 0 0 0 0 0 0 0 0 0 0 0 0 0 0 0 0 0 0 0 0 0 0 0 0 0 0 0 0 0 0 0 0 0 0 0 0 0 0 0
-0 -0 0 0 0 0 0 0 0 0 0 0 0 0 1 0 0 0 0 0 0 0 0 0 0 0 0 0 0 0 0 0 0 0 0 0 0 0 0 0 0 0 0 0
-0 -0 -0 0 0 0 0 0 0 0 0 0 0 0 0 1 0 0 0 0 0 0 0 0 0 0 0 0 0 0 0 0 0 0 0 0 0 0 0 0 0 0 0 0
0 -0 -0 0 0 0 0 0 0 0 0 0 0 0 0 0 0 0 0 0 0 0 0 1 0 0 0 0 0 0 0 0 0 0 0 0 0 0 0 0 0 0 0 0
-0 0 -0 -0 0 0 0 0 0 0 0 0 0 0 0 0 0 0 0 0 0 1 1 0 1 0 0 0 0 0 0 0 0 0 0 0 0 0 0 0 0 0 0 0
0 -0 -0 -0 -0 0 0 0 0 0 0 0 0 0 0 0 0 0 0 0 0 1 1 0 1 1 0 0 0 0 0 0 0 0 0 0 0 0 0 0 0 0 0 0
0 0 0 -0 -0 -0 -0 -0 0 0 0 0 0 0 0 0 0 0 0 1 1 1 1 0 1 1 1 0 0 0 0 0 0 0 0 0 0 0 0 0 0 0 0 0
0 0 0 0 0 -0 -0 -0 0 0 0 0 0 0 0 0 0 0 1 1 2 2 1 1 1 1 1 1 0 0 0 0 0 0 0 0 0 0 0 0 0 0 0 0
0 0 0 0 0 0 0 -0 -0 -0 -0 -0 0 0 0 0 0 0 2 2 1 1 1 1 0 0 0 0 0 0 0 0 0 0 0 0 0 0 0 0 0 0 0 0
0 0 0 0 0 0 0 0 0 0 -0 -0 -0 0 0 -0 0 0 0 0 0 0 0 0 0 0 0 0 0 0 0 0 0 0 0 0 0 0 0 0 0 0 0 0
-0 0 0 0 0 -0 0 -0 -0 0 -0 -0 0 1 1 0 0 0 0 0 0 0 0 0 0 0 0 0 0 0 0 0 0 0 0 0 0 0 0 0 0 0 0 0
-0 -0 0 0 0 0 0 0 0 1 1 1 2 2 1 0 0 0 0 0 0 0 0 0 0 0 0 0 0 0 0 0 0 0 0 0 0 0 0 0 0 0 0 0
-0 -0 0 -0 0 0 0 0 0 0 0 1 1 1 0 0 0 0 0 0 0 0 0 0 0 0 0 0 0 0 0 0 0 0 0 0 0 0 0 0 0 0 0 0
0 0 -0 -0 0 0 0 0 0 0 0 0 0 0 0 0 0 0 0 0 0 0 0 0 0 0 0 0 0 0 0 0 0 0 0 0 0 0 0 0 0 0 0 0
Wind_Speed_500mb
48 44 20 47 44 39 33 17 25 14 13 28 24 22 39 64 66 67 66 65 66 64 57 49 45 42 35 27 34 30 30 18 30 23 30 25 20 34 36 36 36 35 33 35
21 40 36 47 47 41 38 20 17 21 18 19 24 49 38 63 65 63 69 70 67 64 59 55 51 47 43 32 39 33 32 23 29 34 24 28 21 28 23 32 40 29 26 29
32 20 22 27 51 47 41 20 25 28 13 13 14 24 48 60 67 70 76 77 71 70 65 59 56 49 47 38 44 35 34 26 22 41 33 32 33 27 23 22 26 22 20 31
24 18 24 18 34 40 40 32 19 19 27 19 15 25 77 81 79 78 79 80 76 74 67 60 55 51 48 44 46 37 36 30 24 42 36 33 36 33 27 25 21 14 30 31
17 33 7 4 25 42 20 20 24 21 29 25 47 36 43 86 76 79 83 81 80 77 70 64 59 53 53 50 48 40 42 38 33 41 37 37 36 37 36 27 18 19 31 36
5 15 24 9 17 22 13 13 19 21 20 19 30 12 10 55 71 71 74 75 80 77 73 70 64 60 59 56 52 43 43 47 33 36 41 39 37 30 26 37 28 21 24 30
5 10 6 3 14 16 26 18 15 39 29 23 15 17 38 37 65 73 72 72 73 77 77 72 68 65 64 61 58 46 38 45 37 38 43 34 39 33 22 33 40 30 23 24
3 11 6 10 26 5 15 14 20 32 45 50 37 32 22 22 70 76 70 73 77 80 78 72 71 66 65 67 58 49 44 46 44 38 43 41 40 37 29 29 37 38 34 25
9 4 23 68 59 57 39 31 21 7 47 58 44 33 30 43 72 77 73 73 77 79 80 76 72 67 67 63 59 53 49 52 48 40 44 43 43 40 37 31 40 40 38 35
18 25 47 44 83 99 84 32 9 4 50 58 47 40 31 46 50 76 75 74 76 81 82 79 74 65 57 64 65 59 54 56 53 49 48 45 43 43 41 36 48 43 41 44
12 30 48 41 83 92 84 76 55 5 38 54 49 51 48 56 67 68 61 71 70 75 80 73 73 69 64 65 68 66 59 55 63 54 51 47 47 44 37 33 45 47 46 46
8 39 10 44 79 92 80 75 63 61 12 18 51 50 47 43 69 58 47 48 66 65 77 72 70 70 68 67 71 72 67 63 69 63 59 48 47 45 34 33 30 46 30 32
17 45 40 57 67 78 83 77 68 61 49 34 28 48 64 67 64 54 49 44 59 58 57 69 69 71 67 65 71 77 76 72 70 67 64 57 49 48 40 36 38 32 42 39
32 44 44 44 68 86 73 70 66 53 55 58 31 33 46 66 62 55 53 57 58 50 44 56 66 65 61 62 69 78 80 74 74 72 68 62 54 50 48 47 52 50 50 48
20 26 35 46 57 71 64 66 63 49 65 72 27 10 42 66 64 60 50 56 52 50 53 56 62 61 60 64 69 78 83 76 75 71 66 60 54 47 49 53 52 54 54 60
29 24 26 40 51 60 64 63 42 46 52 59 34 39 28 44 44 51 47 31 48 44 45 61 62 55 64 65 69 75 79 85 79 74 70 61 57 59 56 60 58 57 64 64
30 23 22 32 44 48 49 53 35 44 60 72 12 50 39 47 28 30 34 27 28 40 46 30 23 51 59 67 66 71 78 81 86 80 77 75 66 65 65 61 66 65 62 55
48 42 27 47 31 43 55 49 52 46 51 50 22 8 27 25 5 20 29 28 41 36 31 32 17 44 57 62 58 63 72 74 86 90 84 75 71 68 65 71 71 68 68 62
55 53 41 29 33 35 34 50 59 64 68 55 49 31 16 30 16 41 38 33 43 35 27 28 25 31 42 61 59 63 65 62 74 87 88 85 62 63 74 72 77 77 77 73
41 51 54 46 53 51 48 44 65 75 68 64 60 42 24 23 18 28 34 33 42 52 39 40 36 23 23 27 55 59 57 55 48 70 82 87 84 82 71 71 72 82 86 85
26 28 30 37 55 50 54 46 57 67 72 73 66 57 46 21 33 32 46 44 43 47 46 45 42 37 29 25 32 50 42 50 56 50 53 71 78 80 74 72 77 63 74 82
34 32 30 28 29 34 37 52 55 63 72 69 71 64 59 47 32 29 44 50 48 42 41 39 38 35 29 24 27 34 46 40 38 28 41 59 60 58 77 72 67 73 72 75
23 27 33 34 45 53 53 42 44 59 68 68 66 54 57 47 29 21 35 39 39 36 42 38 38 35 30 28 25 25 28 26 28 45 45 31 40 40 49 51 56 59 62 69
34 20 26 36 40 42 52 70 69 58 59 64 60 65 46 31 25 29 37 36 24 4 39 35 26 24 23 31 32 32 32 31 30 28 36 43 44 48 44 45 55 55 55 56
50 45 20 7 18 14 12 26 37 51 18 11 17 26 35 41 42 35 28 29 15 15 14 32 33 32 30 29 33 31 26 21 16 16 21 24 25 31 40 53 58 58 54 58
56 61 57 45 42 22 15 29 17 26 29 18 20 24 27 27 26 24 22 30 39 38 43 39 22 17 21 19 19 18 14 10 10 13 13 19 23 26 33 44 49 53 56 61
50 50 58 53 41 35 33 38 33 45 52 53 57 47 45 37 39 41 50 58 54 42 39 50 40 29 17 14 15 14 13 13 10 6 4 3 8 17 28 37 43 48 52 57
Wind_Direction_500mb
226 249 203 184 181 186 202 172 186 220 229 180 179 175 163 162 160 164 170 176 181 181 181 187 190 193 196 179 185 176 186 168 153 139 125 119 124 98 97 98 118 120 125 143
223 230 243 190 187 190 208 186 181 175 228 187 213 189 142 159 163 167 174 180 184 185 185 187 191 191 194 184 188 179 190 176 163 155 149 135 124 124 113 107 118 122 118 135
214 235 233 235 189 193 206 204 179 199 180 255 175 192 156 160 166 173 179 182 187 187 190 190 192 191 194 188 189 181 191 179 164 156 160 148 140 137 155 142 120 118 134 128
195 204 234 222 195 198 201 200 203 168 184 214 212 201 162 167 174 180 181 185 189 189 191 193 193 193 193 190 193 181 190 189 173 162 170 169 163 156 150 152 147 129 148 148
172 203 311 236 199 192 189 215 193 180 185 192 220 145 172 176 180 182 184 188 192 194 190 190 192 190 191 191 195 185 191 196 182 176 182 174 176 177 171 145 150 139 153 150
159 147 205 221 250 174 116 205 187 161 181 162 179 169 217 189 190 183 181 186 191 191 190 190 192 190 190 192 197 193 190 200 189 181 186 179 192 190 185 188 167 168 159 165
148 106 356 336 278 166 181 218 180 176 179 164 158 169 195 203 177 174 176 182 189 188 192 193 191 190 191 193 200 197 189 201 193 187 194 186 193 200 199 183 176 173 182 178
96 84 79 349 295 240 199 109 110 165 170 169 176 187 204 228 174 169 169 177 185 186 193 194 194 193 194 196 200 199 192 200 196 187 193 192 199 205 210 190 179 179 201 198
352 37 2 14 2 345 170 129 126 144 179 175 161 169 170 156 169 170 172 177 184 190 192 193 196 199 198 199 195 197 194 202 199 189 194 201 203 210 212 203 184 192 198 208
321 351 1 20 350 353 3 15 92 187 190 177 176 180 182 170 179 174 171 177 184 189 191 193 197 203 208 198 194 196 197 206 202 193 195 199 209 219 221 214 198 197 201 206
288 6 350 348 343 344 343 359 13 103 175 172 181 184 193 167 153 163 173 178 182 189 192 196 200 206 206 201 194 197 196 210 204 204 202 203 215 223 230 229 212 203 208 219
338 323 302 309 325 336 341 342 359 4 300 172 188 185 194 190 177 169 166 172 184 192 193 194 202 204 205 202 199 197 198 208 205 205 204 211 213 212 225 227 206 209 210 211
304 332 328 321 318 336 334 335 342 357 352 302 205 194 199 175 165 167 174 181 181 180 193 195 200 203 205 204 201 199 202 208 210 207 208 210 213 216 216 205 203 208 205 217
260 275 303 329 325 326 321 327 335 356 4 339 216 208 175 170 166 167 177 176 176 173 177 196 200 204 208 206 202 202 205 214 213 210 211 215 218 221 220 211 205 206 207 209
264 274 269 292 305 306 319 332 337 349 354 330 360 160 166 168 169 169 172 181 187 192 197 195 201 206 211 207 203 203 204 212 214 218 214 213 220 222 220 217 218 217 211 211
237 232 263 275 284 306 315 312 316 336 335 334 335 24 151 142 147 163 182 167 180 180 191 199 202 207 210 209 207 205 208 210 214 214 213 212 219 220 220 217 222 225 225 220
281 210 245 254 276 286 301 304 307 310 308 287 44 261 132 136 150 144 171 188 191 190 189 185 203 202 205 208 205 208 210 214 213 216 214 215 219 221 221 221 224 229 234 234
273 273 251 248 273 284 283 283 286 306 276 311 300 178 119 123 186 168 176 163 151 158 171 193 203 199 201 205 205 210 211 218 214 214 216 217 218 224 226 226 225 230 236 236
252 262 243 248 265 269 286 272 286 291 308 317 331 309 206 187 240 187 189 193 185 170 168 184 179 159 176 199 203 206 209 220 218 216 217 217 217 217 223 226 226 228 229 235
254 259 269 225 225 240 257 263 274 286 291 303 309 305 314 236 219 186 176 195 195 194 191 196 201 191 179 173 198 205 210 212 216 221 222 223 223 224 224 226 227 233 231 235
308 287 284 263 217 220 236 241 251 280 283 285 289 292 301 289 242 208 194 194 186 192 200 212 226 226 231 224 195 201 201 216 220 227 233 230 230 230 230 231 236 241 246 239
303 297 282 279 258 240 241 236 248 252 269 271 274 281 293 291 281 255 212 209 194 191 194 203 217 228 227 234 231 215 216 216 209 207 226 235 237 237 237 233 236 247 246 243
312 294 288 279 272 261 260 262 263 265 269 269 268 272 278 277 279 226 184 169 168 197 209 214 222 231 232 230 224 206 215 218 223 229 235 230 231 231 233 239 239 239 235 226
12 351 280 282 274 265 261 249 253 284 278 278 271 257 249 223 184 143 163 163 157 351 185 182 190 220 220 201 190 198 206 212 209 199 208 214 212 216 222 235 239 233 226 224
10 15 28 166 205 225 244 217 235 232 213 162 188 207 217 201 207 173 189 210 233 242 62 135 142 150 153 168 167 174 183 179 190 211 227 239 241 235 229 225 224 222 226 229
25 23 34 53 63 104 142 175 159 159 190 193 169 140 134 161 170 171 170 145 152 176 189 164 159 167 187 185 182 182 193 206 241 255 247 237 229 226 223 221 223 226 222 219
25 30 44 49 59 66 77 99 110 105 122 124 123 124 136 120 116 122 132 131 135 144 152 141 148 161 166 144 137 140 151 143 145 149 156 214 230 223 222 222 224 222 219 216
Wind_Speed_850mb
48 44 20 47 44 39 33 17 25 14 13 28 24 22 39 64 66 67 66 65 66 64 57 49 45 42 35 27 34 30 30 18 30 23 30 25 20 34 36 36 36 35 33 35
21 40 36 47 47 41 38 20 17 21 18 19 24 49 38 63 65 63 69 70 67 64 59 55 51 47 43 32 39 33 32 23 29 34 24 28 21 28 23 32 40 29 26 29
32 20 22 27 51 47 41 20 25 28 13 13 14 24 48 60 67 70 76 77 71 70 65 59 56 49 47 38 44 35 34 26 22 41 33 32 33 27 23 22 26 22 20 31
24 18 24 18 34 40 40 32 19 19 27 19 15 25 77 81 79 78 79 80 76 74 67 60 55 51 48 44 46 37 36 30 24 42 36 33 36 33 27 25 21 14 30 31
17 33 7 4 25 42 20 20 24 21 29 25 47 36 43 86 76 79 83 81 80 77 70 64 59 53 53 50 48 40 42 38 33 41 37 37 36 37 36 27 18 19 31 36
5 15 24 9 17 22 13 13 19 21 20 19 30 12 10 55 71 71 74 75 80 77 73 70 64 60 59 56 52 43 43 47 33 36 41 39 37 30 26 37 28 21 24 30
5 10 6 3 14 16 26 18 15 39 29 23 15 17 38 37 65 73 72 72 73 77 77 72 68 65 64 61 58 46 38 45 37 38 43 34 39 33 22 33 40 30 23 24
3 11 6 10 26 5 15 14 20 32 45 50 37 32 22 22 70 76 70 73 77 80 78 72 71 66 65 67 58 49 44 46 44 38 43 41 40 37 29 29 37 38 34 25
9 4 23 68 59 57 39 31 21 7 47 58 44 33 30 43 72 77 73 73 77 79 80 76 72 67 67 63 59 53 49 52 48 40 44 43 43 40 37 31 40 40 38 35
18 25 47 44 83 99 84 32 9 4 50 58 47 40 31 46 50 76 75 74 76 81 82 79 74 65 57 64 65 59 54 56 53 49 48 45 43 43 41 36 48 43 41 44
12 30 48 41 83 92 84 76 55 5 38 54 49 51 48 56 67 68 61 71 70 75 80 73 73 69 64 65 68 66 59 55 63 54 51 47 47 44 37 33 45 47 46 46
8 39 10 44 79 92 80 75 63 61 12 18 51 50 47 43 69 58 47 48 66 65 77 72 70 70 68 67 71 72 67 63 69 63 59 48 47 45 34 33 30 46 30 32
17 45 40 57 67 78 83 77 68 61 49 34 28 48 64 67 64 54 49 44 59 58 57 69 69 71 67 65 71 77 76 72 70 67 64 57 49 48 40 36 38 32 42 39
32 44 44 44 68 86 73 70 66 53 55 58 31 33 46 66 62 55 53 57 58 50 44 56 66 65 61 62 69 78 80 74 74 72 68 62 54 50 48 47 52 50 50 48
20 26 35 46 57 71 64 66 63 49 65 72 27 10 42 66 64 60 50 56 52 50 53 56 62 61 60 64 69 78 83 76 75 71 66 60 54 47 49 53 52 54 54 60
29 24 26 40 51 60 64 63 42 46 52 59 34 39 28 44 44 51 47 31 48 44 45 61 62 55 64 65 69 75 79 85 79 74 70 61 57 59 56 60 58 57 64 64
30 23 22 32 44 48 49 53 35 44 60 72 12 50 39 47 28 30 34 27 28 40 46 30 23 51 59 67 66 71 78 81 86 80 77 75 66 65 65 61 66 65 62 55
48 42 27 47 31 43 55 49 52 46 51 50 22 8 27 25 5 20 29 28 41 36 31 32 17 44 57 62 58 63 72 74 86 90 84 75 71 68 65 71 71 68 68 62
55 53 41 29 33 35 34 50 59 64 68 55 49 31 16 30 16 41 38 33 43 35 27 28 25 31 42 61 59 63 65 62 74 87 88 85 62 63 74 72 77 77 77 73
41 51 54 46 53 51 48 44 65 75 68 64 60 42 24 23 18 28 34 33 42 52 39 40 36 23 23 27 55 59 57 55 48 70 82 87 84 82 71 71 72 82 86 85
26 28 30 37 55 50 54 46 57 67 72 73 66 57 46 21 33 32 46 44 43 47 46 45 42 37 29 25 32 50 42 50 56 50 53 71 78 80 74 72 77 63 74 82
34 32 30 28 29 34 37 52 55 63 72 69 71 64 59 47 32 29 44 50 48 42 41 39 38 35 29 24 27 34 46 40 38 28 41 59 60 58 77 72 67 73 72 75
23 27 33 34 45 53 53 42 44 59 68 68 66 54 57 47 29 21 35 39 39 36 42 38 38 35 30 28 25 25 28 26 28 45 45 31 40 40 49 51 56 59 62 69
34 20 26 36 40 42 52 70 69 58 59 64 60 65 46 31 25 29 37 36 24 4 39 35 26 24 23 31 32 32 32 31 30 28 36 43 44 48 44 45 55 55 55 56
50 45 20 7 18 14 12 26 37 51 18 11 17 26 35 41 42 35 28 29 15 15 14 32 33 32 30 29 33 31 26 21 16 16 21 24 25 31 40 53 58 58 54 58
56 61 57 45 42 22 15 29 17 26 29 18 20 24 27 27 26 24 22 30 39 38 43 39 22 17 21 19 19 18 14 10 10 13 13 19 23 26 33 44 49 53 56 61
50 50 58 53 41 35 33 38 33 45 52 53 57 47 45 37 39 41 50 58 54 42 39 50 40 29 17 14 15 14 13 13 10 6 4 3 8 17 28 37 43 48 52 57
Wind_Direction_850mb
226 249 203 184 181 186 202 172 186 220 229 180 179 175 163 162 160 164 170 176 181 181 181 187 190 193 196 179 185 176 186 168 153 139 125 119 124 98 97 98 118 120 125 143
223 230 243 190 187 190 208 186 181 175 228 187 213 189 142 159 163 167 174 180 184 185 185 187 191 191 194 184 188 179 190 176 163 155 149 135 124 124 113 107 118 122 118 135
214 235 233 235 189 193 206 204 179 199 180 255 175 192 156 160 166 173 179 182 187 187 190 190 192 191 194 188 189 181 191 179 164 156 160 148 140 137 155 142 120 118 134 128
195 204 234 222 195 198 201 200 203 168 184 214 212 201 162 167 174 180 181 185 189 189 191 193 193 193 193 190 193 181 190 189 173 162 170 169 163 156 150 152 147 129 148 148
172 203 311 236 199 192 189 215 193 180 185 192 220 145 172 176 180 182 184 188 192 194 190 190 192 190 191 191 195 185 191 196 182 176 182 174 176 177 171 145 150 139 153 150
159 147 205 221 250 174 116 205 187 161 181 162 179 169 217 189 190 183 181 186 191 191 190 190 192 190 190 192 197 193 190 200 189 181 186 179 192 190 185 188 167 168 159 165
148 106 356 336 278 166 181 218 180 176 179 164 158 169 195 203 177 174 176 182 189 188 192 193 191 190 191 193 200 197 189 201 193 187 194 186 193 200 199 183 176 173 182 178
96 84 79 349 295 240 199 109 110 165 170 169 176 187 204 228 174 169 169 177 185 186 193 194 194 193 194 196 200 199 192 200 196 187 193 192 199 205 210 190 179 179 201 198
352 37 2 14 2 345 170 129 126 144 179 175 161 169 170 156 169 170 172 177 184 190 192 193 196 199 198 199 195 197 194 202 199 189 194 201 203 210 212 203 184 192 198 208
321 351 1 20 350 353 3 15 92 187 190 177 176 180 182 170 179 174 171 177 184 189 191 193 197 203 208 198 194 196 197 206 202 193 195 199 209 219 221 214 198 197 201 206
288 6 350 348 343 344 343 359 13 103 175 172 181 184 193 167 153 163 173 178 182 189 192 196 200 206 206 201 194 197 196 210 204 204 202 203 215 223 230 229 212 203 208 219
338 323 302 309 325 336 341 342 359 4 300 172 188 185 194 190 177 169 166 172 184 192 193 194 202 204 205 202 199 197 198 208 205 205 204 211 213 212 225 227 206 209 210 211
304 332 328 321 318 336 334 335 342 357 352 302 205 194 199 175 165 167 174 181 181 180 193 195 200 203 205 204 201 199 202 208 210 207 208 210 213 216 216 205 203 208 205 217
260 275 303 329 325 326 321 327 335 356 4 339 216 208 175 170 166 167 177 176 176 173 177 196 200 204 208 206 202 202 205 214 213 210 211 215 218 221 220 211 205 206 207 209
264 274 269 292 305 306 319 332 337 349 354 330 360 160 166 168 169 169 172 181 187 192 197 195 201 206 211 207 203 203 204 212 214 218 214 213 220 222 220 217 218 217 211 211
237 232 263 275 284 306 315 312 316 336 335 334 335 24 151 142 147 163 182 167 180 180 191 199 202 207 210 209 207 205 208 210 214 214 213 212 219 220 220 217 222 225 225 220
281 210 245 254 276 286 301 304 307 310 308 287 44 261 132 136 150 144 171 188 191 190 189 185 203 202 205 208 205 208 210 214 213 216 214 215 219 221 221 221 224 229 234 234
273 273 251 248 273 284 283 283 286 306 276 311 300 178 119 123 186 168 176 163 151 158 171 193 203 199 201 205 205 210 211 218 214 214 216 217 218 224 226 226 225 230 236 236
252 262 243 248 265 269 286 272 286 291 308 317 331 309 206 187 240 187 189 193 185 170 168 184 179 159 176 199 203 206 209 220 218 216 217 217 217 217 223 226 226 228 229 235
254 259 269 225 225 240 257 263 274 286 291 303 309 305 314 236 219 186 176 195 195 194 191 196 201 191 179 173 198 205 210 212 216 221 222 223 223 224 224 226 227 233 231 235
308 287 284 263 217 220 236 241 251 280 283 285 289 292 301 289 242 208 194 194 186 192 200 212 226 226 231 224 195 201 201 216 220 227 233 230 230 230 230 231 236 241 246 239
303 297 282 279 258 240 241 236 248 252 269 271 274 281 293 291 281 255 212 209 194 191 194 203 217 228 227 234 231 215 216 216 209 207 226 235 237 237 237 233 236 247 246 243
312 294 288 279 272 261 260 262 263 265 269 269 268 272 278 277 279 226 184 169 168 197 209 214 222 231 232 230 224 206 215 218 223 229 235 230 231 231 233 239 239 239 235 226
12 351 280 282 274 265 261 249 253 284 278 278 271 257 249 223 184 143 163 163 157 351 185 182 190 220 220 201 190 198 206 212 209 199 208 214 212 216 222 235 239 233 226 224
10 15 28 166 205 225 244 217 235 232 213 162 188 207 217 201 207 173 189 210 233 242 62 135 142 150 153 168 167 174 183 179 190 211 227 239 241 235 229 225 224 222 226 229
25 23 34 53 63 104 142 175 159 159 190 193 169 140 134 161 170 171 170 145 152 176 189 164 159 167 187 185 182 182 193 206 241 255 247 237 229 226 223 221 223 226 222 219
25 30 44 49 59 66 77 99 110 105 122 124 123 124 136 120 116 122 132 131 135 144 152 141 148 161 166 144 137 140 151 143 145 149 156 214 230 223 222 222 224 222 219 216